RH
43 42 35 30 31 32 33 33 34 40 48 51 48 44 43 43 44 44 46 49 50 51 54 55 56 57 58 59 60 60 60 59 59 58 58 58 57 57 56 56 56 56 55 55 55 57 59 61 65 66 66 67 69 70 72 73 74 73 71 65 58 57 57 61 67 67 61 59 58 57 55 52 50 50 49 48 47 45 45 47 50 53 55 59 62
43 42 36 31 33 34 35 36 37 41 48 52 51 46 44 44 45 47 50 52 53 55 58 59 61 62 62 63 64 64 63 62 61 61 61 61 61 62 61 60 61 60 59 59 60 61 64 66 68 70 71 73 76 76 76 76 77 78 78 75 70 65 60 58 61 63 63 61 60 59 58 56 53 51 49 49 48 46 45 45 48 49 51 54 59
43 42 37 34 35 36 36 37 38 43 46 49 50 47 46 46 48 51 54 56 57 59 61 63 64 64 63 65 65 64 63 62 62 63 63 65 66 66 65 63 63 64 64 66 66 66 69 72 75 78 80 82 83 83 81 80 79 79 78 77 76 73 69 66 65 67 67 66 66 64 59 56 54 52 51 51 50 49 47 46 46 47 49 52 55
42 40 37 37 38 39 40 40 40 42 44 45 47 47 48 49 51 54 56 58 59 60 62 63 64 65 65 65 65 63 63 64 65 66 67 67 68 68 68 67 67 68 69 70 71 73 78 82 84 86 88 89 89 88 87 85 82 80 79 78 76 74 72 71 71 71 71 70 68 66 61 57 55 55 54 53 53 52 51 50 49 49 51 55 55
42 40 38 37 38 40 41 41 41 41 43 44 45 46 49 50 53 55 57 58 60 62 63 63 65 67 67 67 68 67 65 66 69 72 72 71 71 72 73 73 72 72 73 76 79 83 86 89 89 90 91 92 92 90 89 88 86 84 82 80 79 76 73 72 71 68 66 66 64 62 61 60 59 58 57 56 55 54 54 53 53 54 55 58 59
43 42 40 39 41 42 41 41 41 42 43 44 46 48 51 53 54 56 58 61 63 64 65 66 67 68 67 66 68 70 70 72 74 75 75 75 75 75 76 76 76 79 82 85 88 89 89 90 90 91 92 93 94 92 90 90 89 88 86 83 81 80 78 76 73 68 67 70 69 64 61 60 59 58 58 58 57 56 55 54 55 59 62 63 63
43 44 43 43 43 42 41 41 42 43 45 47 49 51 54 55 57 60 63 67 68 66 67 70 70 70 69 67 70 74 76 77 77 78 79 80 80 80 82 85 87 89 90 90 91 91 92 93 93 93 94 94 96 96 95 95 95 94 92 88 85 83 82 80 76 74 75 78 78 74 67 61 59 59 58 58 58 58 57 56 56 60 66 69 68
43 46 46 45 44 43 42 43 44 46 49 50 51 53 56 59 62 66 70 71 70 67 68 72 73 74 75 75 78 79 78 78 79 80 82 84 86 90 93 96 97 96 96 95 95 96 96 96 96 96 95 93 91 91 94 96 98 98 95 91 87 84 81 81 80 77 77 75 73 73 70 64 59 59 58 58 59 59 58 58 59 59 64 70 71
45 46 45 45 46 46 46 46 47 50 51 51 53 55 60 65 68 70 72 73 73 72 74 76 79 83 86 85 85 84 85 87 86 85 88 91 94 98 99 100 100 100 100 99 99 100 99 99 98 96 94 92 89 89 93 97 98 99 97 93 89 84 78 79 78 75 74 72 67 66 66 63 60 58 58 58 57 57 56 57 61 62 62 65 67
44 44 46 47 49 49 48 49 50 51 52 54 57 61 66 70 73 74 76 78 80 82 84 86 90 94 96 94 93 94 97 94 87 90 99 100 99 100 100 100 100 100 101 101 100 99 99 98 99 98 96 97 97 97 100 101 101 101 101 98 97 95 89 85 79 74 73 71 68 66 63 61 57 55 56 56 55 55 56 58 63 65 66 68 65
47 48 49 49 51 51 50 50 51 53 56 59 63 66 68 70 74 79 82 85 87 89 91 93 96 98 98 99 100 101 101 93 88 96 104 99 98 100 100 100 101 100 100 100 98 94 92 93 93 92 92 93 94 94 94 94 92 92 92 90 89 90 90 87 82 78 75 71 68 67 66 62 58 56 57 56 56 56 57 60 64 66 69 72 70
52 52 52 51 51 52 52 53 55 58 61 65 68 68 69 74 80 85 88 89 90 93 95 96 99 101 102 100 97 97 97 93 95 104 102 92 92 99 101 100 99 100 100 99 97 95 91 91 91 89 88 87 87 88 87 87 86 86 86 85 84 83 83 84 82 80 79 77 73 70 69 66 63 61 61 60 60 59 58 62 69 72 72 70 67
49 52 56 55 55 56 56 58 60 60 62 65 68 69 76 85 89 89 91 93 94 96 97 99 100 101 100 96 92 93 91 89 97 106 99 89 87 91 99 103 100 100 101 99 99 99 97 96 95 93 90 87 87 88 88 89 91 91 90 90 90 88 87 86 83 78 78 80 80 77 74 71 68 65 61 60 62 63 64 69 76 79 76 70 65
50 55 58 56 57 59 59 60 62 62 63 66 68 73 83 92 93 92 93 96 98 98 98 99 99 96 96 96 96 97 91 89 99 103 96 89 78 73 88 103 102 99 101 101 99 98 98 98 99 97 94 93 93 92 90 92 93 93 92 91 91 90 88 89 88 82 80 81 83 82 80 78 75 70 64 60 61 65 70 76 80 82 79 73 66
54 57 58 56 57 59 59 60 62 62 63 68 75 83 91 97 98 98 96 96 98 98 98 99 99 95 94 96 98 95 88 91 102 102 93 80 63 64 88 103 102 100 100 99 97 94 93 94 93 94 96 97 96 90 89 94 96 97 97 94 92 90 87 88 90 87 85 84 82 81 80 79 80 80 75 68 63 64 70 77 81 81 78 74 69
56 57 56 56 59 61 61 61 64 69 74 82 90 95 98 100 100 100 99 98 99 99 99 101 99 95 94 94 95 91 83 87 99 99 87 68 54 73 101 104 99 102 98 94 93 89 87 88 86 88 90 92 90 81 77 87 93 95 98 98 97 96 90 88 88 89 91 90 84 81 78 76 78 79 78 77 73 69 72 81 84 80 78 78 76
60 58 58 60 64 67 67 67 74 85 93 97 99 100 100 101 100 100 101 101 101 100 100 101 100 99 96 92 93 92 83 85 95 88 70 56 54 79 105 103 97 98 92 87 86 83 81 83 84 86 87 87 85 75 69 76 83 87 92 94 96 99 96 91 88 88 91 91 88 86 82 76 72 69 70 76 79 75 77 83 83 79 80 83 81
67 66 66 67 70 72 75 80 89 97 100 100 100 100 99 100 101 101 101 100 101 100 100 101 100 100 99 94 94 98 89 85 94 82 56 47 58 82 104 103 95 91 84 81 82 79 80 83 84 85 86 84 80 73 69 74 80 86 91 88 89 98 98 92 91 90 89 88 86 85 84 78 73 73 74 74 75 77 82 84 79 75 78 81 78
75 76 76 77 79 82 87 94 98 100 100 99 100 100 100 101 101 101 101 100 100 100 99 100 99 98 101 98 95 99 90 79 87 85 63 49 58 79 99 99 90 86 83 81 81 80 82 86 84 82 80 77 75 71 71 78 84 90 94 89 91 99 95 88 89 89 89 90 87 84 82 76 73 81 84 77 75 82 89 89 83 77 76 78 76
79 81 83 87 91 92 95 99 100 100 100 100 100 100 100 101 100 100 101 99 100 101 98 100 101 98 100 98 92 93 90 80 83 92 83 65 57 71 93 97 88 87 86 84 84 84 83 83 80 75 72 73 77 76 77 82 88 94 96 90 90 93 89 86 87 87 88 90 87 83 80 73 73 84 88 80 76 81 88 91 90 84 78 76 76
83 88 91 95 97 97 98 99 100 101 100 100 101 101 100 101 100 100 101 99 100 101 99 100 102 99 98 99 95 92 89 84 87 97 99 86 70 74 95 102 94 92 94 90 86 82 79 76 74 74 75 78 83 85 86 88 91 94 95 90 87 86 84 86 88 86 88 90 87 85 81 75 79 88 89 84 81 80 85 94 97 92 83 78 76
92 96 97 98 99 99 100 100 100 102 102 101 102 102 101 102 101 100 101 100 100 101 100 100 103 101 98 98 96 92 89 88 92 96 100 99 90 87 96 101 98 98 98 92 84 78 75 75 75 76 80 84 89 91 92 93 92 92 91 87 83 81 82 86 88 87 88 87 83 82 80 79 85 89 86 86 85 82 86 96 99 92 83 79 77
98 100 100 100 100 100 100 100 99 100 101 101 101 102 101 102 102 100 100 101 101 101 100 99 98 97 95 91 88 85 84 84 86 86 88 94 95 91 92 96 97 98 97 91 83 77 74 74 76 79 84 90 93 93 93 95 94 94 93 90 87 86 85 85 87 88 90 84 76 75 78 81 85 84 81 83 85 84 88 97 101 92 81 79 81
99 100 100 100 100 100 100 101 101 101 102 102 101 101 101 101 102 101 100 101 101 98 95 93 90 88 86 84 80 78 77 77 79 78 81 88 92 92 94 95 93 94 94 89 81 75 74 76 81 85 88 90 90 90 93 96 95 96 97 96 94 93 90 87 86 86 86 83 76 74 76 79 81 80 78 78 79 80 83 90 98 95 85 85 88
100 101 100 100 100 100 101 102 102 101 102 102 101 101 102 101 100 100 99 97 96 93 90 88 86 84 83 81 77 74 74 76 75 74 76 82 87 91 95 96 94 92 91 84 76 74 78 83 88 90 86 85 87 91 94 95 94 95 97 96 94 92 89 87 87 86 84 82 79 77 75 75 77 78 77 76 77 79 80 83 91 95 93 94 95
100 100 100 100 100 100 100 101 101 100 101 101 100 100 101 101 100 99 97 95 93 91 88 87 85 84 82 79 75 73 73 74 74 74 75 78 81 87 93 98 96 91 84 77 72 75 82 89 91 88 84 85 89 92 94 93 91 92 93 92 93 93 88 81 78 80 80 78 77 77 76 75 75 75 76 78 79 81 83 84 88 93 95 97 99
100 100 100 100 100 101 102 101 101 101 100 100 100 99 99 99 99 98 96 93 90 87 86 86 85 83 80 77 76 75 75 74 72 73 75 78 83 90 97 100 96 86 78 75 76 83 91 93 88 82 79 81 84 87 89 88 87 88 90 91 93 95 93 87 81 79 79 77 76 77 77 76 75 73 75 80 82 82 84 86 87 89 89 90 91
100 100 100 100 102 103 103 102 101 100 99 99 99 98 97 97 97 95 94 93 91 90 89 88 86 85 84 82 80 79 77 74 73 76 81 88 95 100 102 100 93 85 82 83 89 96 96 87 78 74 74 77 80 83 83 84 85 87 89 91 92 92 94 94 90 85 83 80 78 77 76 76 76 75 76 84 87 86 86 87 86 83 83 84 85
100 100 100 101 102 101 99 98 98 98 98 98 98 97 97 98 98 97 96 97 98 98 97 96 95 94 95 93 89 85 80 78 81 85 85 87 96 102 103 101 97 93 91 93 98 98 88 76 72 73 74 77 80 81 81 84 86 87 87 90 91 90 91 93 94 94 91 85 79 78 78 78 78 78 83 90 91 87 87 89 86 81 81 82 81
100 100 100 100 99 97 95 94 94 95 94 95 96 96 96 98 100 101 100 99 100 100 97 95 95 98 102 101 96 92 91 92 95 90 77 73 85 97 100 100 100 98 98 100 99 90 78 73 74 75 76 78 80 80 82 85 85 86 88 89 89 90 91 92 93 98 99 94 88 84 79 77 79 83 87 90 90 89 90 91 87 83 82 81 79
100 100 100 99 96 96 96 96 96 95 94 95 95 93 91 93 97 101 102 102 101 98 93 88 84 87 97 104 102 99 99 100 98 87 72 71 84 96 98 96 95 94 99 101 95 82 75 75 76 75 76 79 79 81 83 84 85 87 88 88 88 90 91 91 94 99 101 100 98 92 81 76 80 86 87 86 86 88 90 91 89 87 85 81 78
101 100 100 100 98 99 99 97 97 96 94 93 92 90 87 87 88 90 96 102 104 100 97 92 83 78 83 93 99 101 102 102 98 89 83 87 96 100 100 98 95 95 99 98 88 78 76 78 77 76 78 78 79 81 83 84 86 88 87 87 88 89 91 94 97 99 99 99 101 98 87 79 78 81 84 84 84 84 86 88 89 88 85 81 78
102 100 100 100 100 100 99 98 97 95 92 90 88 87 87 86 84 84 88 95 100 101 101 100 95 91 89 88 88 91 95 98 98 95 95 99 100 99 101 101 100 102 102 93 82 78 78 78 77 78 79 79 79 81 83 84 86 88 88 89 89 89 92 95 97 97 99 99 100 100 96 88 81 79 80 82 83 83 84 85 86 85 84 80 77
103 102 101 101 101 101 100 99 96 93 90 90 89 88 88 87 87 86 85 85 87 89 90 92 93 97 99 97 95 95 96 97 98 98 96 96 96 98 101 98 94 96 95 87 80 79 78 77 78 79 80 80 81 82 83 84 86 87 89 91 90 89 91 93 95 97 100 99 98 100 101 98 92 87 82 79 81 83 84 83 83 83 82 79 75
103 102 102 101 101 101 99 97 95 92 91 90 88 88 89 88 88 88 86 84 84 84 84 85 85 89 95 99 101 103 103 102 102 99 97 96 98 101 97 87 81 83 85 82 81 81 80 80 80 80 80 82 83 83 83 85 86 87 89 91 91 90 90 92 94 97 99 99 98 99 100 100 99 97 92 85 80 81 83 85 84 82 81 79 76
100 101 100 99 99 99 98 96 95 93 92 92 92 93 93 91 89 87 85 84 84 84 83 83 83 86 92 95 97 99 102 104 103 101 99 100 102 100 92 84 82 83 83 82 83 83 83 83 82 81 81 83 83 83 84 85 86 87 90 92 92 91 91 93 96 98 99 99 98 99 101 101 99 100 100 95 87 81 82 84 85 83 81 79 77
100 100 100 100 99 99 98 97 97 97 97 97 97 95 93 90 88 86 85 84 83 83 83 83 84 85 86 86 88 93 99 102 102 101 99 99 99 96 89 86 86 86 84 84 85 85 85 85 83 83 83 84 84 85 86 86 87 87 90 93 93 91 92 95 97 99 99 99 97 97 99 101 99 99 102 102 97 89 84 83 85 85 83 80 78
100 100 100 100 100 100 100 99 99 99 98 96 93 90 88 87 86 85 84 83 83 83 83 83 84 84 82 81 85 91 97 99 96 93 91 91 92 91 89 88 88 87 85 86 87 88 87 85 85 85 85 85 85 86 86 87 88 88 89 92 92 92 93 96 97 99 99 99 99 98 98 99 99 100 100 100 100 98 92 88 86 85 84 83 81
100 98 98 98 99 100 100 99 99 98 95 92 89 87 86 86 85 85 84 83 83 84 83 81 81 82 81 82 86 91 95 96 92 87 87 88 89 90 91 90 88 87 86 88 89 89 88 86 86 87 87 86 87 87 87 88 89 89 90 91 91 92 93 95 98 100 100 99 100 100 99 99 100 100 99 99 100 101 100 97 92 87 84 84 84
99 98 97 97 98 99 99 98 99 97 93 89 87 86 86 86 85 85 84 84 84 83 83 82 82 82 83 86 91 95 97 97 94 91 90 90 91 92 93 91 88 88 89 90 89 89 89 88 88 89 88 88 88 89 89 90 91 91 90 90 91 92 94 96 99 100 100 100 100 100 100 100 100 100 100 100 100 102 102 102 100 96 89 84 83
98 98 98 97 98 98 96 95 94 92 91 91 90 88 87 87 86 85 85 85 84 83 83 83 83 83 86 91 96 98 99 99 98 95 92 92 93 94 94 91 90 91 91 90 90 90 91 90 90 90 89 89 90 92 92 92 93 92 91 91 92 93 94 96 98 99 100 100 100 100 100 100 100 100 100 100 101 102 101 100 101 100 96 91 88
99 99 98 98 97 94 92 91 91 91 92 92 91 89 88 88 88 87 87 87 87 86 85 85 85 85 88 92 97 99 99 99 98 95 94 94 95 95 95 94 94 93 93 92 94 94 93 92 91 90 90 90 93 94 96 96 96 95 93 92 93 94 95 96 98 100 100 100 100 100 100 100 100 100 99 99 101 101 100 99 99 99 99 98 94
100 99 99 98 96 94 93 92 92 92 91 90 90 91 92 92 92 91 89 88 88 87 87 86 86 86 87 90 94 97 98 97 95 93 92 93 95 96 97 96 95 95 96 97 98 97 95 95 95 93 92 94 96 97 98 99 99 98 97 96 96 97 97 97 98 100 100 100 100 100 100 100 100 100 99 99 100 100 99 99 99 98 98 98 95
100 99 97 94 92 92 93 91 90 90 90 91 93 96 97 97 95 91 87 86 86 87 87 86 86 87 87 87 90 91 91 91 91 91 92 94 97 97 97 96 96 97 99 100 100 99 98 99 99 98 96 98 99 99 100 100 100 100 100 99 99 99 99 99 100 100 100 100 100 100 100 100 100 100 99 99 100 99 98 98 99 98 97 96 94
98 97 94 90 89 90 90 90 91 91 91 91 92 92 92 92 90 88 86 85 85 85 86 86 87 87 87 86 87 88 88 90 92 93 94 96 96 97 97 97 98 99 100 100 100 100 100 100 100 99 99 100 100 100 100 100 100 100 100 100 100 100 99 100 100 100 100 100 100 100 100 100 100 100 100 100 100 99 98 99 99 98 96 95 94
98 97 95 92 91 91 90 90 91 91 91 91 90 88 88 88 87 87 87 87 86 86 87 88 89 89 88 87 87 87 89 92 93 93 94 96 97 97 98 99 100 100 101 101 101 100 100 100 100 100 100 100 100 100 100 100 100 100 100 100 100 100 100 100 100 100 100 100 100 100 100 100 100 100 100 100 100 100 99 98 99 99 97 95 94
99 98 96 94 93 92 92 92 92 91 91 92 91 91 90 89 89 89 89 89 90 91 90 90 90 89 88 88 87 88 90 93 93 93 94 96 97 98 99 100 101 101 101 101 101 102 101 100 100 100 100 100 100 100 100 100 100 100 100 100 100 100 100 100 100 100 100 100 100 100 100 100 100 100 100 100 100 100 99 98 98 99 98 96 94
99 98 97 97 96 94 92 91 91 91 90 90 89 90 91 90 91 91 90 90 91 91 90 89 88 88 87 87 87 88 91 93 94 94 95 96 97 98 99 101 102 103 101 100 101 103 103 101 99 100 101 100 100 100 100 100 100 100 100 100 100 100 100 100 100 100 100 100 100 100 100 100 100 100 100 100 100 100 100 99 99 98 97 95 93
98 97 98 98 97 95 93 92 91 90 89 88 88 88 89 90 90 90 90 89 89 89 88 88 88 87 88 88 89 90 92 94 95 95 96 97 97 98 99 101 103 103 101 100 100 102 104 104 102 100 100 100 100 100 100 100 100 100 100 100 100 100 100 100 100 100 101 101 100 100 100 100 101 101 100 100 100 100 100 100 100 99 99 96 94
98 97 99 99 97 96 95 94 92 91 90 89 88 87 88 88 89 88 88 88 87 87 87 88 88 88 88 89 91 94 95 95 95 97 97 98 99 99 99 100 102 102 101 101 102 103 104 105 104 102 100 100 100 100 100 100 100 100 100 100 100 100 100 100 100 100 101 101 100 99 100 100 101 101 101 100 100 100 100 101 101 100 99 98 95
98 98 100 100 98 97 95 92 91 91 90 89 89 89 88 88 88 87 87 87 86 86 87 87 87 87 88 90 92 94 95 95 96 98 99 99 99 100 99 100 101 101 100 101 102 103 104 105 105 103 101 100 100 100 100 100 100 100 100 100 100 100 100 100 99 100 101 101 100 100 99 98 98 100 101 100 100 100 101 102 101 101 100 98 97
Wind_Speed
13 13 14 15 15 15 16 16 16 16 14 14 15 16 16 15 16 16 16 17 17 17 17 17 18 18 18 19 19 19 19 19 19 19 19 19 19 19 19 19 20 20 19 19 18 18 18 19 18 18 18 18 18 18 18 18 18 19 20 21 23 24 25 24 18 18 23 26 28 29 26 26 26 24 23 24 24 24 24 24 23 23 24 24 22
14 14 15 15 15 16 16 16 16 15 15 15 16 16 15 16 16 17 17 17 17 17 18 18 18 18 19 20 19 20 20 20 19 18 19 20 20 20 20 20 20 20 20 20 19 18 18 19 20 19 18 19 19 19 19 19 18 20 20 20 22 23 23 25 24 19 21 25 28 29 27 25 27 26 23 23 24 23 24 24 24 24 25 24 23
14 14 15 15 16 16 16 16 16 16 16 16 16 16 16 16 17 17 18 18 18 18 18 18 19 19 20 20 20 20 20 19 19 19 19 20 21 21 21 21 21 21 21 20 20 19 20 21 21 19 18 18 19 19 19 19 19 20 21 21 22 24 23 24 26 23 22 24 25 27 27 25 28 27 24 24 25 24 25 26 25 26 26 25 25
14 14 15 16 16 16 16 16 16 16 16 16 16 16 17 17 17 17 18 18 18 18 18 19 19 20 20 20 20 20 20 20 20 20 21 21 22 22 22 22 22 22 22 22 22 21 21 21 20 19 18 19 20 19 18 19 19 20 21 21 22 24 24 24 26 26 24 24 24 26 27 26 27 27 24 24 25 25 26 27 27 27 27 27 27
14 15 16 17 17 16 17 17 16 16 16 17 17 17 17 17 17 18 18 19 19 19 19 19 19 20 20 21 21 21 21 21 21 21 22 22 23 23 23 23 23 23 23 23 22 21 21 21 21 20 20 21 21 20 20 20 20 20 21 21 21 23 23 24 26 27 27 27 27 28 28 27 28 27 25 24 25 25 25 27 28 28 28 27 28
15 16 16 17 17 17 17 17 16 17 17 17 17 16 16 17 18 18 18 19 20 19 20 20 20 20 21 21 22 22 22 22 22 22 23 23 23 24 24 24 24 24 23 23 21 22 22 23 23 23 23 24 24 23 23 23 23 23 23 23 23 23 24 25 25 27 28 27 27 28 28 28 28 28 27 26 25 25 25 26 28 28 27 27 27
16 17 17 18 18 18 18 17 17 17 17 17 17 16 17 17 18 18 18 19 19 20 21 21 21 21 21 22 22 23 22 22 22 23 23 23 24 24 24 24 23 23 22 23 23 24 26 26 27 27 27 27 28 27 27 26 25 25 25 25 24 25 25 26 26 27 27 26 25 25 26 27 27 28 27 26 25 26 26 25 24 24 25 26 26
17 17 17 18 18 18 18 17 17 17 17 17 17 17 17 18 18 18 18 19 19 21 22 22 22 22 22 22 22 23 23 23 23 24 25 25 24 24 23 22 22 24 26 28 29 30 31 31 31 31 31 31 32 32 31 30 28 27 27 26 25 25 25 25 25 26 27 27 26 26 27 26 26 26 26 24 24 25 25 25 24 23 23 24 25
17 17 17 18 18 18 18 17 17 17 17 17 17 18 18 18 18 18 19 19 20 21 21 22 23 23 22 22 22 22 22 22 22 24 25 25 25 25 27 28 29 31 33 35 35 33 33 34 34 33 34 35 35 35 34 34 32 30 28 26 25 25 25 24 25 26 25 25 26 26 26 25 25 24 24 23 24 24 25 26 25 25 25 23 24
17 17 18 18 18 18 18 18 18 17 17 18 18 18 19 19 19 19 20 21 21 21 21 21 21 20 19 20 21 21 21 22 25 27 27 27 28 29 31 31 31 32 32 32 31 30 30 31 32 32 33 35 36 36 36 35 35 34 31 29 28 27 25 24 24 25 25 23 24 24 22 23 26 27 26 26 26 26 26 26 24 24 22 20 21
17 18 18 18 18 18 18 18 17 17 17 18 18 19 20 20 21 21 21 21 21 20 20 20 19 19 20 21 22 23 24 27 29 29 29 30 31 31 31 30 29 29 29 29 28 28 28 29 29 29 30 31 32 34 34 34 35 36 36 36 35 34 32 29 27 26 25 24 25 25 22 22 26 28 27 27 27 26 26 25 23 22 19 14 13
19 19 18 18 18 18 18 18 17 17 18 18 19 20 20 21 20 20 21 21 20 19 19 19 20 21 22 24 27 28 29 31 30 29 31 32 33 33 31 29 28 28 28 28 28 29 28 28 28 29 29 30 31 32 34 35 35 36 37 38 38 39 39 38 35 32 29 27 26 26 26 25 25 27 27 26 25 24 25 26 24 22 19 16 14
20 20 19 19 19 18 17 17 18 19 20 20 20 21 21 20 19 20 21 20 19 20 20 20 21 22 23 27 31 32 33 33 31 29 32 33 34 34 32 29 29 29 28 28 28 28 28 28 28 28 29 30 31 32 34 35 34 34 35 36 37 39 40 42 42 39 37 35 31 30 31 29 27 28 29 27 25 24 25 26 25 23 19 18 18
19 19 19 19 18 18 18 18 19 20 21 21 21 21 20 19 18 20 20 18 18 19 20 20 21 23 26 28 30 32 34 34 31 30 32 34 33 34 33 30 28 28 27 26 27 27 27 27 27 28 29 28 29 30 32 33 34 34 34 35 36 37 38 39 41 42 42 41 38 37 38 37 35 34 32 30 29 29 28 27 27 24 21 19 19
20 19 19 19 18 18 19 20 20 21 22 22 21 20 18 17 17 18 18 17 18 19 19 19 21 24 27 27 28 32 35 33 30 31 33 34 32 32 32 29 26 26 26 26 26 27 27 28 29 29 29 28 30 31 32 34 35 35 35 36 37 39 39 38 38 39 40 41 42 42 43 44 44 42 39 35 34 35 34 32 30 27 23 20 19
20 20 20 19 18 18 20 21 22 21 21 20 19 17 16 17 18 18 18 19 19 18 19 20 22 25 27 27 29 33 37 34 30 31 33 33 33 32 29 26 26 26 27 27 27 27 27 28 29 29 30 31 33 34 35 36 36 36 35 36 37 40 41 40 38 38 39 40 42 43 44 45 45 45 44 41 39 38 37 34 31 28 22 16 16
20 20 20 19 18 18 19 21 21 19 17 16 17 17 18 19 20 19 19 20 19 19 20 21 21 23 26 28 29 32 37 35 30 31 33 32 33 32 27 25 25 26 26 27 26 27 27 28 29 31 32 34 35 36 37 37 36 35 33 34 36 37 40 41 38 37 39 40 41 43 45 46 46 46 46 46 44 43 38 32 30 28 21 12 11
20 20 20 19 19 19 20 20 18 16 16 17 17 19 20 21 21 20 19 20 20 20 20 20 20 20 22 25 26 28 34 35 31 31 32 30 30 31 26 24 25 25 25 26 25 26 27 28 30 33 34 35 35 37 37 36 35 33 32 35 35 34 38 39 36 35 37 40 41 42 43 44 44 44 46 46 46 45 40 34 33 30 22 15 13
19 19 19 19 19 19 18 17 16 15 17 18 19 21 22 22 22 21 20 20 20 19 18 18 20 20 20 23 26 28 33 35 31 30 31 30 30 30 27 24 24 24 24 24 24 25 26 28 31 32 33 33 33 34 34 34 36 34 34 37 34 32 35 36 34 33 34 36 38 38 37 36 37 37 38 41 43 45 44 40 37 32 25 20 17
19 18 18 18 18 17 16 15 15 16 18 20 21 22 23 22 22 21 21 21 20 19 19 19 21 24 24 26 28 29 31 32 30 29 30 30 30 30 26 22 22 23 23 24 25 26 27 28 28 28 29 31 32 34 35 36 39 38 36 35 31 30 34 35 33 33 33 33 34 34 32 32 33 32 32 33 36 40 43 41 38 35 28 21 18
18 18 18 18 17 17 16 15 16 18 20 22 22 23 23 23 23 22 22 21 21 21 22 22 23 26 27 26 27 27 28 29 29 28 29 30 30 30 25 20 21 24 25 25 26 26 25 25 24 24 27 30 33 35 37 39 41 38 34 33 32 33 34 33 32 32 33 32 31 31 30 30 30 30 29 29 29 32 36 37 38 38 33 26 21
17 17 17 17 17 17 17 18 20 22 23 23 23 25 26 25 24 24 22 21 22 24 26 26 25 25 25 24 24 24 24 26 25 25 26 28 29 30 28 24 23 25 25 24 24 24 24 24 24 25 27 31 34 37 39 40 40 37 35 36 37 35 31 30 31 28 27 28 28 27 27 26 25 25 26 25 26 27 29 31 35 39 37 32 27
16 16 17 18 19 19 20 22 24 25 25 24 24 25 27 25 24 23 21 21 21 23 24 24 23 23 23 21 20 21 22 23 23 23 25 27 28 30 30 28 27 26 25 25 25 24 24 24 25 26 29 33 36 38 38 38 37 35 37 38 38 35 29 26 28 26 25 27 26 24 25 24 22 22 22 21 21 23 23 23 29 36 36 31 28
17 18 19 20 20 21 22 24 25 25 25 23 22 23 24 24 22 20 19 18 18 19 20 20 19 20 20 20 19 19 20 21 22 24 24 25 27 29 30 29 29 30 29 27 26 25 25 25 26 29 33 36 37 36 35 34 33 33 35 37 36 32 28 24 24 24 24 25 23 22 24 24 20 20 21 20 19 21 23 21 22 27 30 29 27
18 19 20 21 21 22 24 25 26 27 25 22 21 21 21 20 19 17 17 17 17 19 19 19 18 19 19 19 20 20 19 21 24 24 23 24 25 26 26 28 31 32 30 28 27 27 27 28 30 33 35 35 33 32 30 29 30 31 31 31 30 28 23 20 19 20 21 21 21 22 25 23 20 21 22 21 20 20 22 23 21 22 25 26 26
19 20 21 21 21 22 23 23 23 23 22 20 19 19 18 17 16 15 16 16 17 18 19 18 18 18 19 19 20 21 21 22 24 24 23 22 22 22 24 27 30 30 29 27 27 27 27 27 29 32 33 31 29 27 26 26 26 26 25 24 24 24 22 19 18 17 17 18 19 21 22 21 21 23 22 21 22 21 20 21 20 20 21 21 20
20 21 21 21 21 21 21 22 21 19 17 17 17 16 16 16 16 16 16 17 18 18 18 17 17 18 19 20 20 21 22 22 22 22 22 21 20 21 23 26 28 27 25 25 25 24 23 25 28 29 28 26 24 23 22 22 21 21 21 21 21 22 22 19 16 16 17 18 19 20 20 19 20 22 22 20 20 20 20 19 17 17 19 20 18
20 21 21 21 21 20 20 20 19 17 15 15 15 15 15 16 16 17 16 16 17 18 18 18 18 19 20 21 21 22 23 21 20 21 22 23 23 23 24 25 26 24 24 25 24 22 22 24 26 24 22 20 19 18 18 18 18 19 20 21 21 21 21 20 16 13 15 18 20 19 18 18 19 20 19 18 18 19 20 20 18 17 18 19 18
20 21 21 20 20 18 17 17 17 17 17 16 16 16 16 16 17 18 19 18 18 20 21 21 22 22 21 22 23 23 22 20 20 24 27 29 29 28 26 26 26 25 26 26 24 20 20 21 20 18 17 17 16 17 17 17 18 19 20 20 21 20 19 18 16 15 15 16 16 17 17 17 17 17 16 16 17 19 19 19 19 18 17 17 16
19 19 18 17 18 17 17 18 18 19 19 19 18 17 18 18 20 23 24 23 23 25 27 28 28 27 24 23 22 20 20 22 24 28 31 32 31 29 28 27 26 25 26 24 20 17 18 17 15 15 15 14 15 15 16 17 18 19 20 20 20 19 19 17 16 18 20 19 15 14 18 18 14 14 16 15 15 17 18 18 18 18 17 16 15
18 17 15 16 18 18 18 19 19 19 19 18 18 19 19 19 19 22 24 25 25 27 29 29 29 27 24 22 20 19 20 23 25 27 30 31 29 27 27 27 26 25 23 20 16 14 14 13 13 13 13 13 14 15 15 16 17 18 19 20 19 19 18 18 18 20 20 19 18 16 17 18 15 15 17 16 15 16 17 17 18 17 17 16 15
18 18 18 18 20 19 18 18 18 19 19 18 18 19 19 19 19 19 20 22 24 26 26 26 26 25 22 20 21 21 21 21 22 25 27 27 26 25 26 26 25 23 20 16 13 12 12 11 12 13 13 13 14 15 15 16 16 17 18 18 18 19 19 19 21 21 19 17 17 17 15 15 17 18 17 17 16 16 16 16 17 17 16 16 16
21 21 20 20 20 19 17 17 18 18 18 18 18 18 18 19 20 20 20 20 21 23 23 22 21 21 21 21 23 23 22 21 22 24 24 24 24 25 24 22 21 19 15 12 10 11 11 11 12 13 13 14 14 15 15 16 16 16 17 17 17 19 20 20 21 20 19 17 16 16 15 12 13 15 17 18 17 16 16 16 16 16 16 15 16
23 22 22 22 21 19 17 17 18 18 18 18 18 18 18 18 19 20 21 20 20 21 21 19 16 15 17 20 23 23 22 22 23 23 23 24 24 23 21 18 15 13 10 9 10 11 11 12 13 13 13 14 15 15 15 16 16 16 16 17 17 18 19 20 19 18 19 19 16 15 16 15 11 9 11 15 17 16 15 15 16 16 15 15 15
22 22 22 22 21 18 17 17 17 18 18 17 17 18 18 18 19 19 19 19 19 21 22 20 17 14 15 19 21 21 20 21 22 23 23 22 20 19 16 13 11 10 9 9 9 10 11 12 13 13 14 15 15 15 16 16 16 16 17 17 18 18 18 18 18 18 19 19 17 16 16 15 14 13 11 11 14 16 15 14 16 16 15 15 15
20 20 19 18 17 17 16 17 17 17 18 18 18 18 18 18 19 19 19 18 19 20 21 21 20 17 16 17 18 18 19 20 21 22 21 19 17 15 12 10 10 10 10 10 10 10 11 12 13 13 14 15 15 15 16 16 17 17 17 17 17 17 17 18 18 19 19 18 17 17 17 15 14 14 14 12 10 14 16 16 15 16 17 17 15
21 20 18 16 16 16 16 17 17 18 18 18 18 18 18 18 18 18 18 18 18 19 20 21 20 19 17 15 14 15 18 20 20 19 17 15 13 12 9 9 11 11 10 10 11 11 12 12 12 13 14 15 15 15 16 16 17 17 17 17 17 16 17 17 17 18 18 17 17 17 17 16 15 14 13 12 10 9 14 17 16 15 17 18 17
20 20 20 19 19 17 17 17 17 18 18 18 18 18 18 18 17 18 18 18 18 18 18 19 18 18 17 16 13 14 17 19 18 15 13 12 11 10 9 10 11 11 11 11 11 12 12 13 13 13 14 14 15 16 16 16 16 17 17 17 17 16 16 16 16 17 17 17 17 17 17 16 16 16 13 11 12 12 8 12 16 15 15 17 17
18 19 20 21 20 18 16 16 17 17 18 18 18 18 18 18 17 17 18 18 18 18 17 17 17 17 17 16 14 14 15 16 15 13 13 12 10 10 10 11 11 11 11 12 12 12 13 13 13 13 14 14 15 15 16 16 16 17 17 17 17 16 16 16 16 17 17 17 17 17 17 17 16 16 15 12 11 14 13 6 8 12 14 17 18
17 17 18 18 17 17 16 17 17 17 17 18 17 17 17 18 18 18 17 17 17 17 17 17 17 17 16 15 14 14 15 15 14 13 14 13 11 10 11 11 11 11 12 12 12 13 13 13 13 14 14 14 14 15 15 16 16 16 16 16 16 16 16 16 16 16 17 17 17 16 17 17 17 15 14 13 13 13 14 12 8 4 9 16 19
16 17 18 17 17 17 17 18 17 17 17 17 17 17 17 18 17 17 17 17 18 18 17 18 18 17 16 15 15 15 15 14 14 13 13 12 12 11 11 11 11 12 12 12 12 13 13 13 14 14 14 14 14 14 15 15 15 15 16 16 15 16 16 15 15 16 17 17 17 17 17 18 18 16 13 13 14 13 12 12 12 9 3 7 13
17 18 18 18 17 18 18 18 18 17 17 17 17 17 17 17 17 17 18 18 18 18 17 18 18 17 16 16 16 16 15 14 14 14 13 12 11 11 11 11 11 11 12 12 12 13 14 14 13 13 13 13 14 14 14 15 15 15 15 15 15 16 16 15 15 16 17 17 17 18 18 17 17 16 14 13 13 13 12 11 11 10 8 4 8
19 18 18 18 18 18 18 18 18 17 17 17 17 16 16 16 17 18 18 18 17 17 17 17 17 16 16 15 14 14 14 13 13 13 13 12 11 11 11 11 11 11 12 12 12 13 13 14 14 13 13 13 14 14 14 14 14 15 14 15 15 15 15 16 16 16 17 18 18 19 19 17 17 16 14 14 13 12 10 10 10 10 9 7 7
18 18 18 19 19 18 18 17 18 18 18 18 17 16 15 16 17 17 17 18 17 17 17 17 16 16 16 15 13 12 13 13 13 13 13 12 12 11 11 10 10 11 12 13 13 13 13 13 14 14 13 13 13 13 13 13 13 13 14 14 15 15 15 15 16 17 18 18 19 19 18 18 17 16 14 14 14 12 10 9 9 9 8 7 7
17 18 19 19 19 18 18 17 17 18 18 18 18 17 15 16 16 16 17 17 17 17 17 16 16 15 15 15 14 13 13 13 13 13 13 12 11 12 11 11 10 11 12 13 13 12 13 13 13 14 14 13 13 13 13 13 12 12 13 13 13 14 14 15 16 17 17 18 18 18 18 18 17 15 15 15 14 12 10 9 8 8 7 7 7
17 18 19 19 18 18 18 17 17 17 17 17 18 17 17 16 16 16 16 16 17 17 17 16 16 15 15 15 14 14 13 13 13 13 13 12 12 12 12 12 11 12 13 13 13 13 13 13 13 13 13 13 13 13 13 12 12 12 12 12 12 12 14 16 17 17 17 17 17 17 17 17 16 15 15 15 14 12 10 9 7 7 6 6 6
18 18 19 18 18 18 18 17 17 18 17 17 17 17 17 17 16 16 17 17 16 17 17 16 16 15 15 15 14 14 13 12 13 13 13 13 13 13 13 13 13 13 13 13 13 13 13 13 13 13 13 13 13 13 12 12 11 11 11 11 11 12 15 17 18 17 16 16 17 16 16 16 16 15 14 14 14 13 11 9 8 7 5 4 4
18 18 18 17 17 17 18 17 17 18 18 18 18 18 17 17 17 16 16 16 16 16 16 16 15 15 15 14 14 14 13 12 12 12 13 13 12 12 13 13 13 13 13 13 13 13 13 12 13 13 13 13 13 13 12 12 11 11 10 10 11 14 16 18 17 16 16 16 15 15 15 15 15 15 14 13 13 12 11 10 9 7 5 4 3
17 17 17 17 16 17 17 17 18 18 17 17 18 18 17 17 17 17 16 16 16 16 15 15 15 15 15 14 14 13 13 12 12 12 12 12 12 12 13 13 13 13 13 13 13 14 13 13 13 13 13 13 12 12 12 12 11 11 10 11 13 15 17 17 16 16 16 15 15 14 14 14 14 14 13 12 12 11 10 9 9 7 6 4 2
16 16 16 16 16 17 17 17 18 18 17 17 17 18 17 17 17 17 16 16 16 15 15 15 15 15 15 14 14 13 13 12 12 11 11 12 13 13 13 13 13 13 13 14 14 15 14 14 13 13 12 12 12 12 12 12 11 10 10 12 14 15 16 16 16 16 16 15 15 14 13 13 13 13 12 11 10 10 10 9 8 7 5 4 3
15 15 16 16 17 17 18 18 18 18 18 17 17 17 17 17 17 17 17 16 16 16 16 15 15 15 15 15 14 13 12 11 11 11 12 12 13 12 12 13 13 13 13 15 15 15 14 14 14 13 12 12 12 12 11 11 11 11 12 13 14 14 14 15 16 16 16 15 14 12 11 12 12 12 11 10 10 10 9 9 8 6 5 4 3
Wind_Direction
310 311 314 314 312 311 310 310 306 298 294 296 301 303 303 303 303 303 303 302 302 302 300 300 300 300 299 299 298 297 297 297 297 295 293 290 289 289 289 288 286 284 284 283 282 281 280 280 279 278 280 281 280 280 280 280 279 276 274 271 267 263 261 261 264 271 270 267 268 269 269 271 271 268 269 270 267 263 262 259 255 252 252 253 252
307 308 310 311 310 309 309 309 306 299 294 294 298 301 302 303 303 303 302 301 302 301 299 300 299 299 299 297 296 295 294 294 293 291 289 288 287 287 287 287 285 283 283 282 281 281 281 281 281 281 280 278 277 277 277 276 275 273 271 270 269 266 263 263 264 268 271 268 266 268 268 267 269 268 267 269 268 265 262 258 255 253 251 250 250
304 305 307 308 308 308 308 307 305 301 297 294 296 298 300 302 303 302 301 301 301 300 299 299 298 298 298 296 294 294 293 292 291 289 287 286 286 285 285 285 284 283 281 281 280 281 281 280 279 278 276 275 274 274 274 273 272 271 269 267 268 268 265 265 267 269 272 270 266 267 268 267 268 269 268 266 267 266 264 261 258 256 252 249 248
304 306 307 307 307 307 306 306 305 302 298 297 297 297 299 301 301 301 301 301 301 300 299 298 297 297 296 294 294 293 293 292 290 289 287 286 284 284 283 282 281 280 280 280 280 279 278 276 275 274 273 272 272 272 271 270 269 268 268 267 266 267 266 264 266 268 272 273 268 266 269 269 268 268 268 267 266 265 265 263 260 257 252 248 247
305 307 308 308 308 306 306 306 304 303 301 300 298 298 300 301 301 302 301 301 301 300 299 299 297 297 296 295 294 293 293 292 290 288 285 284 283 282 282 281 280 279 278 278 277 275 273 272 271 271 270 269 269 269 267 266 265 265 266 266 265 266 266 263 263 264 266 269 268 266 266 267 267 266 266 267 267 266 264 262 259 255 251 247 245
304 306 308 308 307 306 306 306 304 304 303 301 300 300 301 302 302 302 301 301 301 299 299 298 296 296 295 295 294 293 292 290 288 286 284 283 283 282 281 280 279 277 276 275 273 271 271 270 269 268 266 265 264 265 264 263 263 262 262 264 263 263 264 263 262 262 262 265 267 266 263 262 263 265 263 262 263 264 264 262 257 251 246 244 243
303 305 306 306 305 305 306 306 305 305 303 301 301 300 301 302 302 302 301 300 300 300 300 297 296 295 293 293 292 290 290 289 287 286 283 282 281 281 279 278 276 275 273 273 271 270 269 268 267 266 265 263 263 263 263 262 260 259 260 261 261 260 260 260 260 260 262 266 268 267 265 261 259 260 260 259 260 259 260 260 258 250 242 239 239
301 301 302 302 303 303 305 305 304 303 302 301 300 300 302 302 302 301 301 299 299 300 299 297 295 294 292 292 291 289 290 288 286 284 283 282 280 278 276 274 273 272 273 275 274 272 271 270 268 267 266 266 266 266 264 262 260 258 258 258 257 258 258 258 258 258 258 261 262 262 263 261 257 257 256 255 255 254 254 255 255 251 243 237 234
299 299 299 299 300 301 302 302 301 301 300 300 300 300 301 301 300 300 299 297 297 297 295 294 292 290 288 289 289 289 286 282 283 284 283 282 280 278 277 277 276 275 276 277 276 274 273 272 270 270 269 269 269 269 265 260 257 254 253 254 255 256 256 255 255 256 256 257 258 257 257 256 254 253 253 250 250 253 254 252 251 249 245 242 237
299 299 298 297 297 298 299 299 298 298 299 298 299 300 300 301 300 298 296 295 295 294 292 289 286 284 284 286 287 286 281 283 289 288 282 280 279 279 279 278 277 276 275 275 275 274 273 271 270 270 269 267 266 265 261 258 256 254 254 256 255 253 252 251 253 255 255 256 257 256 255 253 250 250 253 252 251 253 253 250 249 248 244 243 244
299 298 297 296 297 297 297 297 297 297 297 298 298 299 300 300 299 296 295 294 293 291 289 286 283 282 283 284 285 283 283 289 294 290 284 284 283 281 281 280 278 277 276 275 275 275 274 271 270 270 268 266 265 264 262 262 262 261 261 261 259 256 254 254 254 253 253 255 257 255 254 254 250 249 251 252 250 250 251 249 247 245 238 235 242
300 298 296 297 297 296 296 296 296 298 299 299 299 299 298 296 295 293 291 292 291 288 286 284 283 282 282 286 290 289 289 293 293 289 288 290 288 286 285 284 283 280 279 278 276 275 274 271 270 269 268 267 266 265 265 266 266 265 264 263 262 260 257 255 253 251 250 251 252 251 251 252 251 248 247 250 251 250 251 249 244 240 237 234 236
301 298 297 297 297 296 296 296 297 298 300 300 300 299 295 291 291 292 291 290 289 287 286 285 283 283 286 291 295 295 295 298 295 290 290 292 292 292 291 289 288 285 282 279 276 274 272 269 268 267 267 266 265 264 266 266 266 266 265 264 263 262 260 258 257 255 253 252 251 250 248 249 249 246 244 246 251 252 252 249 242 236 234 234 236
299 296 295 296 296 295 296 297 297 297 299 301 299 296 291 287 288 291 291 289 287 287 287 286 285 288 291 293 294 294 297 299 296 292 292 294 296 298 297 295 292 287 282 280 277 275 272 270 268 268 268 267 264 265 266 266 266 265 263 263 263 262 261 260 259 259 258 256 255 254 251 250 249 248 245 244 246 248 249 250 246 240 235 237 241
298 295 295 296 295 296 297 297 297 297 298 299 296 291 287 284 286 288 288 287 285 285 286 285 286 291 294 293 293 294 297 298 295 293 294 297 300 303 301 298 293 288 285 282 279 277 275 272 271 270 270 268 267 268 269 268 266 263 261 262 261 261 261 259 257 257 255 253 254 255 254 252 251 251 250 245 242 244 247 251 249 244 241 242 242
297 296 297 296 294 294 296 296 295 294 295 294 290 287 285 285 287 288 287 285 284 283 282 282 285 290 294 294 293 294 299 300 296 295 298 301 304 304 301 297 293 289 287 284 281 279 277 274 273 272 272 271 271 274 274 271 269 266 263 260 258 257 259 259 257 255 253 250 250 251 252 250 249 250 250 246 242 241 244 247 246 241 240 242 241
294 296 296 295 293 292 294 294 291 289 289 288 287 286 286 287 289 289 286 284 283 282 281 281 282 285 289 292 291 292 298 300 297 297 301 304 304 303 300 297 294 289 288 286 284 282 279 277 276 275 274 274 275 277 278 277 276 275 272 268 262 254 254 258 259 257 255 254 253 252 251 248 245 246 247 245 242 240 238 238 238 235 235 238 239
291 292 292 291 291 291 290 288 285 283 284 286 286 287 288 289 289 287 284 282 282 282 282 281 281 281 281 286 287 286 293 298 298 299 305 307 304 302 300 297 295 293 292 289 286 284 282 280 279 278 278 278 278 279 280 282 285 285 283 281 272 255 251 256 257 255 255 256 258 259 258 254 250 249 248 246 243 238 231 229 231 232 232 232 232
288 288 288 288 288 287 284 282 280 281 283 285 286 288 289 289 289 287 283 281 280 281 281 279 280 280 277 281 285 287 292 299 301 300 304 307 305 302 300 298 298 297 294 292 290 287 284 283 283 283 283 283 283 285 287 289 291 291 290 288 276 256 252 255 251 249 251 253 255 259 261 260 259 257 255 252 247 238 230 227 229 229 227 225 223
289 286 286 286 284 282 281 279 280 281 283 286 286 287 288 287 286 285 283 282 281 280 280 279 279 282 283 285 290 292 293 298 301 299 300 304 306 306 303 301 301 300 298 296 294 291 289 287 288 289 290 292 294 295 295 294 294 295 295 293 280 262 257 253 245 243 246 248 251 255 257 259 260 258 256 255 252 245 236 230 227 224 221 218 214
289 285 285 285 282 281 281 279 280 281 284 286 286 287 288 287 285 284 283 282 281 278 279 279 278 282 285 285 287 291 293 296 297 295 296 302 307 310 308 305 303 302 300 299 297 296 296 295 294 295 296 297 297 297 297 297 298 302 303 298 289 277 262 247 239 241 243 244 248 250 252 255 254 252 251 249 247 246 241 232 225 221 219 214 209
287 285 285 284 282 282 280 279 283 286 287 289 288 288 290 289 286 285 282 280 279 279 281 282 280 282 284 283 282 286 289 290 290 290 295 300 305 310 310 308 307 307 308 307 304 301 299 298 298 298 297 296 296 298 300 302 305 308 306 298 294 291 276 250 237 236 237 240 245 246 245 246 243 243 245 241 236 239 240 233 225 221 217 211 208
286 284 283 282 281 280 279 282 287 290 291 290 287 287 290 289 286 284 280 277 277 278 280 282 280 280 282 283 284 285 286 288 289 291 295 298 303 309 311 311 314 319 318 313 306 302 299 299 298 297 297 298 300 302 304 306 308 308 305 301 300 303 298 273 248 234 231 238 243 242 240 238 235 236 238 233 227 230 232 228 223 220 216 210 209
285 282 282 281 279 279 280 284 288 289 289 287 282 282 286 286 284 281 277 274 275 276 278 280 281 283 285 287 289 290 289 290 293 296 296 296 301 308 311 313 320 324 320 311 304 301 299 298 297 299 302 304 305 306 306 307 307 304 303 305 305 301 298 288 264 244 234 236 239 240 238 235 230 231 231 227 223 224 226 226 221 217 214 212 213
284 282 281 279 278 280 282 285 288 290 288 283 277 277 280 279 278 278 277 274 273 274 277 280 281 283 286 289 292 293 292 293 296 298 298 297 300 306 310 314 319 319 313 306 303 301 300 300 303 307 308 307 306 306 304 303 305 304 304 308 309 299 286 275 264 251 240 234 235 238 238 232 225 226 228 225 219 217 221 222 219 214 212 213 217
285 284 282 279 280 281 282 284 287 287 284 278 273 273 274 274 274 276 276 274 272 272 274 277 280 282 285 288 292 295 296 295 296 298 299 298 299 303 308 312 313 310 306 303 303 303 302 303 306 307 306 303 301 301 300 301 305 310 310 313 317 310 291 270 256 249 244 240 238 235 233 229 226 224 222 217 213 210 210 212 211 210 210 211 216
286 285 283 282 283 282 281 282 284 283 278 274 272 272 272 271 271 272 273 273 274 274 274 275 278 281 285 289 292 295 296 296 295 296 299 299 299 302 306 308 308 307 305 304 304 305 304 303 304 303 301 300 299 297 299 304 311 317 320 321 322 318 308 295 274 255 248 246 239 230 225 225 226 221 212 207 207 206 201 197 198 201 206 211 217
287 285 285 286 286 284 282 283 283 281 277 273 272 271 271 272 269 267 268 271 272 272 273 275 277 280 285 290 293 294 295 294 292 293 295 295 298 303 306 306 306 306 306 306 307 308 306 304 304 303 302 303 304 304 306 311 317 320 324 326 325 319 319 321 313 289 267 252 237 225 219 219 220 216 205 194 195 199 196 194 196 199 202 207 215
288 285 286 286 285 285 285 284 283 283 281 278 274 269 268 269 268 267 268 268 267 267 267 269 272 278 285 290 292 292 292 291 290 291 293 295 300 305 307 307 307 307 307 309 311 312 308 305 304 306 307 309 311 312 315 320 322 324 326 329 329 326 328 332 332 327 312 284 250 225 218 219 216 208 197 187 190 197 197 195 199 203 204 207 215
288 285 284 285 286 288 289 287 287 286 284 282 280 276 272 269 269 272 276 275 272 270 270 271 275 280 286 289 289 286 287 291 293 294 296 299 304 308 309 309 310 310 311 315 316 312 308 306 306 308 311 313 314 316 322 326 326 327 329 329 329 331 334 336 337 334 327 314 292 252 229 221 207 193 191 191 192 194 194 195 198 201 203 208 216
286 285 285 286 289 291 289 287 287 284 282 282 281 282 282 278 275 276 280 281 278 276 278 282 286 289 291 291 288 286 289 294 296 297 299 303 308 313 314 313 313 315 318 323 321 311 307 308 310 312 314 316 316 318 323 327 327 327 329 328 328 330 334 338 338 333 324 317 311 288 248 223 201 189 193 197 197 195 195 196 198 202 206 209 214
284 284 287 288 290 290 287 285 284 283 282 282 282 283 285 286 285 284 284 285 284 284 286 290 294 297 297 294 292 293 296 298 299 301 304 308 313 318 318 316 316 319 325 326 318 310 310 311 312 315 318 317 319 321 323 325 327 328 327 326 326 329 332 333 334 332 325 317 313 306 279 238 209 197 196 200 202 201 197 196 198 201 205 210 215
288 284 286 288 289 287 285 283 282 281 281 282 282 283 284 286 289 291 293 293 291 291 292 293 295 298 299 298 299 302 304 306 308 310 311 312 315 319 319 317 318 323 328 328 318 312 314 314 313 317 320 319 320 322 323 324 326 327 327 326 324 325 328 330 331 332 331 325 319 317 311 282 235 212 205 205 207 205 199 196 199 200 202 208 214
291 285 286 288 287 284 282 281 281 281 281 281 281 282 282 283 286 289 294 297 297 298 300 299 297 295 296 298 303 306 309 312 314 314 313 313 317 322 322 319 320 326 330 329 319 314 315 316 315 317 320 320 321 323 323 325 326 326 326 326 324 324 327 331 334 335 334 331 329 329 329 322 305 268 231 215 210 208 204 199 196 197 202 207 209
290 287 288 288 284 280 280 280 281 282 282 281 280 281 282 283 284 284 286 290 293 297 299 300 299 296 294 297 300 302 306 310 311 311 311 315 323 329 328 323 324 328 329 326 320 316 316 316 315 317 319 320 323 323 323 324 325 326 327 327 327 329 331 333 336 336 334 333 334 335 335 335 332 323 300 254 221 209 207 204 198 196 201 205 206
289 287 286 285 282 279 280 281 281 282 282 281 280 280 280 281 282 281 282 283 284 287 291 295 298 299 296 294 296 300 305 309 310 311 313 319 330 336 333 324 320 320 319 319 318 317 315 314 314 317 319 319 322 323 324 324 324 325 327 328 328 330 333 336 337 336 334 333 334 336 339 339 339 337 327 304 257 218 208 206 201 198 199 202 206
289 286 282 282 283 282 281 281 279 279 279 279 279 279 279 279 279 280 281 281 282 284 287 292 296 300 300 298 298 303 307 310 312 314 316 322 332 335 326 315 312 311 309 313 316 316 314 313 314 316 317 318 320 322 323 324 324 324 326 328 329 331 334 337 338 338 336 334 334 336 339 339 339 339 334 325 312 266 223 207 200 202 202 200 205
286 283 282 283 284 283 282 281 280 279 279 278 278 278 279 279 279 280 280 281 282 283 285 289 292 295 297 301 304 307 310 312 314 317 318 321 326 325 317 311 309 305 303 307 311 312 311 312 313 315 316 317 319 320 322 323 324 325 325 327 329 331 334 336 339 340 339 338 337 338 339 338 339 339 335 335 338 327 281 214 199 200 199 198 208
287 286 286 287 286 283 282 282 281 281 280 278 278 278 278 279 280 280 280 282 282 282 283 285 287 288 292 297 303 307 310 311 313 314 315 314 313 312 309 306 304 302 302 304 307 309 310 310 312 315 315 316 317 320 321 322 324 325 325 326 328 332 335 338 339 341 342 340 338 338 338 336 335 337 339 342 343 339 333 302 219 207 201 201 210
289 288 288 288 286 283 282 282 280 279 278 278 278 278 278 279 280 280 281 282 282 282 282 283 283 285 288 291 296 301 304 305 304 304 305 304 303 303 302 300 299 300 301 302 304 307 308 309 311 313 314 315 317 319 321 321 322 324 325 326 328 330 334 336 337 339 340 339 338 338 338 335 333 335 339 344 344 339 339 342 335 276 214 204 203
291 288 287 287 286 284 283 280 278 278 278 278 277 277 277 277 278 278 279 280 281 282 282 282 281 283 285 286 288 293 296 296 296 295 294 294 295 296 295 294 294 295 296 299 302 304 306 307 309 311 313 315 317 319 321 321 322 323 325 326 327 328 331 334 336 338 338 338 337 338 338 335 334 335 337 341 344 342 341 346 352 355 345 187 178
291 288 287 286 285 284 283 280 279 279 279 276 275 275 276 277 278 278 278 277 278 279 280 280 281 282 283 285 288 290 290 287 286 286 286 286 287 288 289 289 290 290 292 295 298 301 303 304 306 308 311 314 316 319 320 322 323 323 323 325 326 328 330 332 334 337 338 337 337 338 339 336 335 336 336 339 342 344 346 350 354 360 11 56 126
290 287 286 284 283 282 280 279 280 279 277 276 276 276 275 276 277 277 276 275 276 276 277 279 281 283 283 285 286 285 282 279 278 280 283 284 282 283 285 286 286 287 290 292 293 296 300 301 303 305 308 311 314 316 318 320 321 321 321 323 324 326 329 332 334 336 337 337 336 336 338 338 337 336 338 341 341 341 347 355 359 360 6 29 78
290 287 285 284 283 281 278 279 279 278 277 277 277 275 273 273 273 274 274 274 275 275 275 278 281 283 284 286 285 281 278 277 278 279 281 282 281 280 282 283 284 286 290 292 293 294 296 298 300 302 304 308 312 313 315 317 318 318 319 321 323 325 328 331 334 335 334 333 333 333 334 337 338 337 338 340 339 341 350 358 360 0 5 19 50
289 287 286 285 283 280 279 279 279 278 278 279 277 276 274 273 272 273 273 274 274 275 276 277 279 280 281 282 281 278 276 277 277 277 278 278 279 280 282 283 283 285 289 293 294 293 294 296 299 300 302 307 310 313 314 316 317 318 319 320 321 325 329 331 331 331 331 330 329 329 330 332 334 335 337 337 336 338 345 351 354 1 9 18 36
289 286 285 284 282 280 281 280 279 279 279 278 277 277 276 275 274 273 273 274 274 275 277 277 277 277 278 277 277 276 275 276 277 277 277 277 277 279 281 282 281 283 288 293 295 293 292 294 295 297 300 304 308 311 313 315 315 317 321 322 323 327 331 331 329 328 328 328 328 326 326 327 329 331 334 336 336 335 338 345 352 2 9 17 30
289 286 283 282 281 280 281 281 280 280 279 277 276 275 274 274 275 274 274 274 274 273 274 275 275 275 275 275 275 274 273 274 277 277 277 278 278 278 280 281 281 283 287 292 294 295 294 292 292 295 298 302 305 308 311 313 315 317 319 323 327 331 333 332 331 327 324 324 325 324 322 322 324 327 330 334 337 336 336 340 349 356 3 14 29
288 285 282 281 280 280 282 282 281 280 280 278 277 276 274 274 274 274 274 275 274 273 273 274 274 275 275 275 275 275 274 274 276 277 277 278 278 279 280 280 280 282 287 290 293 296 297 294 291 293 296 298 301 305 308 310 311 314 317 320 327 331 332 332 331 329 326 324 324 323 321 319 320 323 327 330 333 335 334 335 339 345 352 2 17
287 284 282 282 281 281 282 282 281 280 281 280 279 278 277 275 274 274 275 276 275 275 275 275 275 276 276 275 275 276 275 274 275 277 278 278 278 279 281 281 281 282 286 288 290 295 300 298 293 292 294 296 298 302 306 307 308 310 313 317 324 330 332 333 332 331 330 328 324 322 322 320 319 322 326 327 328 330 332 331 332 335 340 345 351
285 283 282 281 282 282 282 282 280 280 280 280 279 279 279 278 277 277 277 277 277 277 278 278 278 278 277 276 275 275 274 274 275 277 279 280 280 279 280 282 283 284 285 288 292 296 300 301 299 294 293 294 296 298 302 306 307 306 307 315 323 329 332 333 334 333 333 331 327 323 322 321 320 322 325 326 326 327 328 330 332 334 332 332 333
285 284 283 282 283 284 284 283 282 281 281 280 280 280 280 280 280 280 279 279 279 280 280 281 281 281 279 278 277 275 274 274 274 276 279 280 280 279 279 281 283 284 287 293 298 299 298 301 303 298 292 291 295 297 300 303 304 303 306 314 321 325 328 334 336 334 333 332 329 325 323 322 321 321 323 325 325 325 325 328 333 332 324 319 316